ZBAA Airport Information

Runway Information
Runway 01 Length 12468 ft width 197 ft
Elevation 94 ft Threshold 0 ft Heading 353
Runway 19 Length 12468 ft Width 197 ft
Elevation 84 ft Threshold 0 ft Heading 173
Runway 18L Length 12468 ft width 197 ft
Elevation 110 ft Threshold 0 ft Heading 173
Runway 36R Length 12468 ft Width 197 ft
Elevation 99 ft Threshold 0 ft Heading 353
Runway 18R Length 10499 ft width 164 ft
Elevation 116 ft Threshold 0 ft Heading 173
Runway 36L Length 10499 ft Width 164 ft
Elevation 107 ft Threshold 0 ft Heading 353
Airport Frequencies
Type APP Name BEIJING AP Frequency 119.6 MHZ
Type APP Name BEIJING AP Frequency 119.7 MHZ
Type APP Name BEIJING AP Frequency 120.6 MHZ
Type APP Name BEIJING AP Frequency 121.1 MHZ
Type APP Name BEIJING AP Frequency 126.1 MHZ
Type APP Name BEIJING AP Frequency 127.75 MHZ
Type ATIS Name BEIJING AT Frequency 127.6 MHZ
Type CLD Name BEIJING DE Frequency 121.6 MHZ
Type GND Name GND EAST Frequency 121.7 MHZ
Type GND Name BEIJING GN Frequency 121.7 MHZ
Type GND Name GND WEST Frequency 121.9 MHZ
Type TWR Name BEIJING EA Frequency 118.5 MHZ
Type TWR Name BEIJING W Frequency 124.3 MHZ
Airport Navaids
Type VOR-DME Name Beijing Frequency 114700 KHZ
Type VOR-DME Name Shaziying Frequency 117200 KHZ
Airport Weather Information & NOTAM
ADDS - METARS form results

(0212 UTC 23 August 2019)
Data provider http://aviationweather.gov/metar/data/
 
METAR text: ZBAA 230200Z 30003MPS 270V340 CAVOK 28/13 Q1013 NOSIG
Conditions at: ZBAA (BEIJING/PEKING , CN) observed 0200 UTC 23 August 2019
Temperature: 28.0°C (82°F)
Dewpoint: 13.0°C (55°F) [RH = 40%]
Pressure (altimeter): 29.91 inches Hg (1013.0 mb)
Winds: from the WNW (300 degrees) at 7 MPH (6 knots; 3.1 m/s)
Visibility: 6 or more miles (10+ km)
Ceiling: ceiling and visibility are OK
Clouds: unknown
Weather: no significant weather observed at this time

METAR text: ZBAA 230130Z 34004MPS 310V010 CAVOK 27/12 Q1013 NOSIG
Conditions at: ZBAA (BEIJING/PEKING , CN) observed 0130 UTC 23 August 2019
Temperature: 27.0°C (81°F)
Dewpoint: 12.0°C (54°F) [RH = 39%]
Pressure (altimeter): 29.91 inches Hg (1013.0 mb)
Winds: from the NNW (340 degrees) at 9 MPH (8 knots; 4.1 m/s)
Visibility: 6 or more miles (10+ km)
Ceiling: ceiling and visibility are OK
Clouds: unknown
Weather: no significant weather observed at this time

Forecast for: ZBAA (BEIJING/PEKING , CN)
Text: TAF ZBAA 222130Z 2300/2324 18004MPS CAVOK TX31/2307Z TN19/2321Z
Forecast period: 0000 UTC 23 August 2019 to 0000 UTC 24 August 2019
Forecast type: FROM: standard forecast or significant change
Winds: from the S (180 degrees) at 9 MPH (8 knots; 4.1 m/s)
Visibility: 6 or more miles 10+ km)
Ceiling: unknown
Clouds: missing
Weather: no significant weather forecast for this period